HYSIS

Last updated on Mon Sep 21 2026 00:02:46 GMT+0000 (Coordinated Universal Time)

1 43719U 18096A 26263.62673797 .00000822 00000+0 11919-3 0 9999 2 43719 97.9751 329.5786 0001388 112.6980 247.4378 14.78660216421521
UTC large
Height (km)
Speed (km/s)
/
Latitude / Longitude
Inclination (degrees)
Orbital Period (minutes)
Azimuth
Elevation
Range (km)
Doppler Factor

Next 0 passes for location: London (51.5072 / 0.1276)

No passes found over London.
HYSIS